Sanford, NC

2:51 AM EST on January 21, 2017 (GMT -0500)
Sanford

Weather History for KTTA - April, 2013

Change the Weather History Date:

Monday, April 22, 2013

  Actual Average (KHRJ) Record (KHRJ)
Temperature  
Mean Temperature 49 °F -  
Max Temperature 63 °F 75 °F 92 °F (1985)
Min Temperature 35 °F 48 °F 34 °F (1978)
Degree Days  
Heating Degree Days 16    
Moisture  
Dew Point 37 °F    
Average Humidity 62    
Maximum Humidity 91    
Minimum Humidity 35    
Precipitation  
Precipitation 0.01 in - - ()
Sea Level Pressure  
Sea Level Pressure 30.36 in    
Wind  
Wind Speed 8 mph (NNE)    
Max Wind Speed 16 mph    
Max Gust Speed 24 mph    
Visibility 10 miles    
Events Rain    
Averages and records for this station are not official NWS values.
T = Trace of Precipitation, MM = Missing Value Source: NWS Daily Summary

Daily Weather History Graph

Daily Weather History Graph

Search for Another Location

Airport or City:

Trip Planner

Search our weather history database for the weather conditions in past years. The results will help you decide how hot, cold, wet, or windy it might be!

Date:

Astronomy

Apr. 22, 2013 Rise Set
Actual Time 6:34 AM EDT 7:55 PM EDT
Civil Twilight 6:07 AM EDT 8:22 PM EDT
Nautical Twilight 5:36 AM EDT 8:54 PM EDT
Astronomical Twilight 5:02 AM EDT 9:27 PM EDT
Moon 4:48 PM EDT (4/22) 4:21 AM EDT (4/22)
Length of Visible Light 14h 14m
Length of Day
13h 20m
Waxing Gibbous, 87% of the Moon is Illuminated
Apr 22
Waxing Gibbous
Apr 25
Full
May 2
Last Quarter
May 9
New
May 18
First Quarter

Hourly Weather History & Observations

Time (EDT) Temp. Windchill Dew Point Humidity Pressure Visibility Wind Dir Wind Speed Gust Speed Precip Events Conditions
12:15 AM 47.7 °F - 38.8 °F 71% 30.47 in 10.0 mi NE 4.6 mph - N/A   Clear
12:35 AM 47.5 °F - 38.5 °F 71% 30.47 in 10.0 mi NE 4.6 mph - N/A   Clear
12:55 AM 46.8 °F - 38.5 °F 73% 30.46 in 10.0 mi NE 3.5 mph - N/A   Clear
1:15 AM 45.7 °F 42.7 °F 38.3 °F 75% 30.47 in 10.0 mi NE 5.8 mph - N/A   Clear
1:35 AM 45.9 °F 43.6 °F 36.9 °F 71% 30.47 in 10.0 mi NE 4.6 mph - N/A   Clear
1:55 AM 44.6 °F 43.1 °F 36.5 °F 73% 30.46 in 10.0 mi NE 3.5 mph - N/A   Clear
2:15 AM 43.7 °F 39.7 °F 35.6 °F 73% 30.45 in 10.0 mi NE 6.9 mph - N/A   Clear
2:35 AM 43.3 °F 39.2 °F 34.5 °F 71% 30.44 in 10.0 mi NE 6.9 mph - 0.01 in   Clear
2:55 AM 41.2 °F 37.3 °F 34.0 °F 76% 30.44 in 10.0 mi NNE 5.8 mph - 0.01 in   Clear
3:15 AM 41.5 °F 38.6 °F 32.7 °F 71% 30.43 in 10.0 mi NNE 4.6 mph - N/A   Clear
3:35 AM 39.2 °F 35.9 °F 32.0 °F 75% 30.42 in 10.0 mi NNE 4.6 mph - N/A   Clear
3:55 AM 37.8 °F 33.3 °F 31.8 °F 79% 30.41 in 10.0 mi North 5.8 mph - N/A   Clear
4:15 AM 37.4 °F 33.8 °F 31.1 °F 78% 30.41 in 10.0 mi NNE 4.6 mph - N/A   Clear
4:35 AM 38.7 °F 34.3 °F 30.6 °F 73% 30.41 in 10.0 mi NNE 5.8 mph - N/A   Clear
4:55 AM 37.2 °F 32.6 °F 30.9 °F 78% 30.41 in 10.0 mi NE 5.8 mph - N/A   Clear
5:15 AM 38.1 °F 33.7 °F 31.1 °F 76% 30.42 in 10.0 mi NNE 5.8 mph - N/A   Clear
5:35 AM 36.9 °F 34.3 °F 31.6 °F 81% 30.42 in 10.0 mi NE 3.5 mph - N/A   Clear
5:55 AM 36.5 °F 33.9 °F 32.0 °F 84% 30.42 in 10.0 mi NE 3.5 mph - N/A   Clear
6:15 AM 36.7 °F 34.1 °F 32.0 °F 83% 30.42 in 10.0 mi North 3.5 mph - N/A   Clear
6:35 AM 35.1 °F 31.0 °F 32.0 °F 89% 30.42 in 10.0 mi North 4.6 mph - N/A   Clear
6:55 AM 35.8 °F 30.9 °F 33.3 °F 91% 30.42 in 10.0 mi NNE 5.8 mph - N/A   Clear
7:15 AM 38.1 °F 32.3 °F 35.1 °F 89% 30.42 in 10.0 mi NNE 8.1 mph - N/A   Clear
7:35 AM 40.3 °F 33.4 °F 35.6 °F 83% 30.41 in 10.0 mi NNE 11.5 mph - N/A   Clear
7:55 AM 41.7 °F 35.6 °F 35.4 °F 78% 30.42 in 10.0 mi NNE 10.4 mph 17.3 mph N/A   Clear
8:15 AM 42.4 °F 37.0 °F 35.6 °F 77% 30.43 in 10.0 mi NNE 9.2 mph 17.3 mph N/A   Clear
8:35 AM 43.0 °F 35.7 °F 35.6 °F 75% 30.43 in 10.0 mi NNE 15.0 mph 19.6 mph N/A   Clear
8:55 AM 44.4 °F 37.9 °F 36.5 °F 74% 30.42 in 10.0 mi North 13.8 mph 19.6 mph N/A   Clear
9:15 AM 45.5 °F 40.8 °F 36.3 °F 70% 30.43 in 10.0 mi North 9.2 mph - N/A   Clear
9:35 AM 47.5 °F - 36.9 °F 67% 30.42 in 10.0 mi North 11.5 mph - N/A   Clear
9:55 AM 48.4 °F - 37.4 °F 66% 30.41 in 10.0 mi North 12.7 mph 17.3 mph N/A   Clear
10:15 AM 49.8 °F - 37.0 °F 61% 30.42 in 10.0 mi NNE 12.7 mph - N/A   Clear
10:35 AM 50.0 °F - 37.2 °F 62% 30.41 in 10.0 mi North 15.0 mph 18.4 mph N/A   Clear
10:55 AM 51.8 °F - 37.0 °F 57% 30.41 in 10.0 mi North 11.5 mph 17.3 mph N/A   Clear
11:15 AM 51.8 °F - 36.0 °F 55% 30.40 in 10.0 mi North 12.7 mph - N/A   Clear
11:35 AM 53.1 °F - 36.3 °F 53% 30.40 in 10.0 mi North 12.7 mph - N/A   Clear
11:55 AM 54.7 °F - 36.0 °F 49% 30.39 in 10.0 mi NNE 10.4 mph 17.3 mph N/A   Clear
12:15 PM 55.4 °F - 36.0 °F 48% 30.38 in 10.0 mi North 9.2 mph 19.6 mph N/A   Clear
12:35 PM 56.1 °F - 36.0 °F 47% 30.37 in 10.0 mi North 13.8 mph 21.9 mph N/A   Clear
12:55 PM 57.7 °F - 36.3 °F 45% 30.36 in 10.0 mi NNE 13.8 mph 24.2 mph N/A   Scattered Clouds
1:15 PM 57.6 °F - 36.9 °F 46% 30.35 in 10.0 mi North 16.1 mph - N/A   Mostly Cloudy
1:35 PM 59.2 °F - 37.2 °F 44% 30.33 in 10.0 mi NNW 15.0 mph 19.6 mph N/A   Scattered Clouds
1:55 PM 60.3 °F - 37.2 °F 42% 30.32 in 10.0 mi North 11.5 mph 17.3 mph N/A   Scattered Clouds
2:15 PM 60.8 °F - 38.3 °F 43% 30.32 in 10.0 mi North 12.7 mph 18.4 mph N/A   Scattered Clouds
2:35 PM 61.2 °F - 38.1 °F 42% 30.31 in 10.0 mi NNW 11.5 mph 19.6 mph N/A   Scattered Clouds
2:55 PM 61.7 °F - 36.5 °F 39% 30.30 in 10.0 mi North 9.2 mph - N/A   Mostly Cloudy
3:15 PM 63.0 °F - 34.7 °F 35% 30.30 in 10.0 mi NNE 12.7 mph - N/A   Scattered Clouds
3:35 PM 61.9 °F - 35.2 °F 37% 30.29 in 10.0 mi NNE 10.4 mph 16.1 mph N/A   Mostly Cloudy
3:55 PM 62.2 °F - 36.5 °F 38% 30.28 in 10.0 mi NE 9.2 mph - N/A   Overcast
4:15 PM 62.6 °F - 36.0 °F 37% 30.27 in 10.0 mi NNE 12.7 mph 16.1 mph N/A   Overcast
4:35 PM 62.1 °F - 37.2 °F 40% 30.27 in 10.0 mi North 10.4 mph - N/A   Overcast
4:55 PM 62.6 °F - 35.6 °F 37% 30.26 in 10.0 mi NNE 13.8 mph 18.4 mph N/A   Overcast
5:15 PM 62.1 °F - 37.0 °F 39% 30.26 in 10.0 mi NNE 9.2 mph 17.3 mph N/A   Overcast
5:35 PM 61.3 °F - 37.9 °F 42% 30.25 in 10.0 mi NNE 13.8 mph 17.3 mph N/A   Overcast
5:55 PM 61.0 °F - 38.3 °F 43% 30.25 in 10.0 mi NNE 12.7 mph - N/A   Overcast
6:15 PM 61.0 °F - 39.9 °F 46% 30.25 in 10.0 mi NNE 10.4 mph - N/A   Overcast
6:35 PM 60.3 °F - 38.8 °F 45% 30.25 in 10.0 mi NNE 10.4 mph - N/A   Overcast
6:55 PM 59.0 °F - 39.4 °F 48% 30.26 in 10.0 mi NNE 11.5 mph 16.1 mph N/A   Overcast
7:15 PM 58.3 °F - 40.1 °F 51% 30.26 in 10.0 mi NNE 12.7 mph - N/A   Overcast
7:35 PM 58.1 °F - 40.6 °F 52% 30.26 in 10.0 mi NNE 10.4 mph - N/A   Overcast
7:55 PM 57.4 °F - 41.4 °F 55% 30.27 in 10.0 mi NNE 8.1 mph - N/A   Overcast
8:15 PM 56.7 °F - 42.1 °F 58% 30.27 in 10.0 mi NNE 4.6 mph - N/A   Overcast
8:35 PM 56.5 °F - 41.7 °F 58% 30.27 in 10.0 mi NNE 10.4 mph 17.3 mph N/A   Overcast
8:55 PM 56.3 °F - 41.9 °F 59% 30.27 in 10.0 mi NE 8.1 mph 18.4 mph N/A   Overcast
9:15 PM 56.1 °F - 41.9 °F 59% 30.28 in 10.0 mi NNE 10.4 mph 16.1 mph N/A   Overcast
9:35 PM 55.6 °F - 41.9 °F 60% 30.28 in 10.0 mi NNE 13.8 mph 23.0 mph N/A   Overcast
9:55 PM 55.4 °F - 41.7 °F 60% 30.29 in 10.0 mi NE 10.4 mph 16.1 mph N/A   Overcast
10:15 PM 54.9 °F - 41.9 °F 62% 30.29 in 10.0 mi ENE 8.1 mph - N/A   Overcast
10:35 PM 54.1 °F - 42.1 °F 64% 30.29 in 10.0 mi NNE 9.2 mph - N/A   Overcast
10:55 PM 53.6 °F - 42.3 °F 65% 30.29 in 10.0 mi NE 12.7 mph 16.1 mph N/A   Overcast
11:15 PM 52.9 °F - 43.0 °F 69% 30.29 in 10.0 mi NE 12.7 mph 18.4 mph N/A   Overcast
11:35 PM 52.2 °F - 43.9 °F 73% 30.28 in 10.0 mi NNE 9.2 mph - N/A   Overcast
11:55 PM 50.4 °F - 45.0 °F 82% 30.28 in 10.0 mi NNE 8.1 mph - N/A Rain Light Rain